Hourly Weather Montana

Today, 2 July, Thursday

Time Temperature Precipitation Wind Pressure Humidity
00:00 +23°C° 0 mm 1 mps 733 mmHg 60%
01:00 +22°C° 0 mm 1 mps 733 mmHg 60%
02:00 +22°C° 0 mm 1 mps 733 mmHg 61%
03:00 +22°C° 0 mm 1 mps 732 mmHg 66%
04:00 +22°C° 0 mm 1 mps 732 mmHg 71%
05:00 +21°C° 0 mm 1 mps 732 mmHg 76%
06:00 +23°C° 0 mm 1 mps 732 mmHg 73%
07:00 +25°C° 0 mm 1 mps 732 mmHg 70%
08:00 +26°C° 0 mm 1 mps 733 mmHg 68%
09:00 +28°C° 0 mm 1 mps 732 mmHg 64%
10:00 +29°C° 0 mm 1 mps 732 mmHg 61%
11:00 +30°C° 0 mm 1 mps 732 mmHg 57%
12:00 +31°C° 0.4 mm 1 mps 732 mmHg 56%
13:00 +32°C° 0.4 mm 1 mps 732 mmHg 54%
14:00 +32°C° 0.4 mm 1 mps 732 mmHg 53%
15:00 +32°C° 0.7 mm 1 mps 731 mmHg 53%
16:00 +32°C° 0.7 mm 1 mps 731 mmHg 54%
17:00 +32°C° 0.7 mm 1 mps 731 mmHg 55%
18:00 +30°C° 0.2 mm 1 mps 731 mmHg 61%
19:00 +28°C° 0.2 mm 1 mps 730 mmHg 66%
20:00 +26°C° 0.2 mm 1 mps 730 mmHg 72%
21:00 +26°C° 0.1 mm 1 mps 731 mmHg 74%
22:00 +25°C° 0.1 mm 1 mps 731 mmHg 75%
23:00 +24°C° 0.1 mm 2 mps 731 mmHg 77%

Tomorrow, 3 July, Friday

Time Temperature Precipitation Wind Pressure Humidity
00:00 +24°C° 0.2 mm 1 mps 731 mmHg 79%
01:00 +23°C° 0.2 mm 1 mps 731 mmHg 81%
02:00 +23°C° 0.2 mm 1 mps 731 mmHg 83%
03:00 +22°C° 0.4 mm 1 mps 731 mmHg 85%
04:00 +22°C° 0.4 mm 1 mps 730 mmHg 87%
05:00 +22°C° 0.4 mm 1 mps 730 mmHg 88%
06:00 +23°C° 0.1 mm 1 mps 731 mmHg 86%
07:00 +24°C° 0.1 mm 1 mps 731 mmHg 84%
08:00 +25°C° 0.1 mm 1 mps 731 mmHg 82%
09:00 +26°C° 0.5 mm 1 mps 731 mmHg 78%
10:00 +27°C° 0.5 mm 2 mps 731 mmHg 75%
11:00 +28°C° 0.5 mm 2 mps 731 mmHg 71%
12:00 +29°C° 0.6 mm 2 mps 731 mmHg 69%
13:00 +30°C° 0.6 mm 2 mps 731 mmHg 66%
14:00 +30°C° 0.6 mm 2 mps 730 mmHg 64%
15:00 +30°C° 0.8 mm 2 mps 730 mmHg 64%
16:00 +30°C° 0.8 mm 1 mps 730 mmHg 64%
17:00 +30°C° 0.8 mm 1 mps 730 mmHg 63%
18:00 +29°C° 0.4 mm 1 mps 730 mmHg 68%
19:00 +27°C° 0.4 mm 1 mps 731 mmHg 72%
20:00 +26°C° 0.4 mm 1 mps 731 mmHg 77%
21:00 +25°C° 0.6 mm 1 mps 731 mmHg 79%
22:00 +24°C° 0.6 mm 1 mps 732 mmHg 82%
23:00 +23°C° 0.6 mm 1 mps 732 mmHg 85%

Day after tomorrow, 4 July, Saturday

Time Temperature Precipitation Wind Pressure Humidity
00:00 +22°C° 0.1 mm 1 mps 732 mmHg 85%
01:00 +22°C° 0.1 mm 1 mps 732 mmHg 86%
02:00 +22°C° 0.1 mm 1 mps 732 mmHg 86%
03:00 +22°C° 0 mm 1 mps 732 mmHg 86%
04:00 +21°C° 0 mm 1 mps 732 mmHg 87%
05:00 +21°C° 0 mm 1 mps 732 mmHg 87%
06:00 +23°C° 0 mm 1 mps 732 mmHg 83%
07:00 +24°C° 0 mm 1 mps 733 mmHg 79%
08:00 +26°C° 0 mm 1 mps 733 mmHg 75%
09:00 +27°C° 0.1 mm 2 mps 733 mmHg 71%
10:00 +28°C° 0.1 mm 2 mps 733 mmHg 67%
11:00 +29°C° 0.1 mm 2 mps 733 mmHg 63%
12:00 +29°C° 0.3 mm 2 mps 732 mmHg 62%
13:00 +29°C° 0.3 mm 2 mps 732 mmHg 62%
14:00 +30°C° 0.3 mm 2 mps 732 mmHg 62%
15:00 +30°C° 0.6 mm 2 mps 732 mmHg 63%
16:00 +29°C° 0.6 mm 2 mps 731 mmHg 63%
17:00 +29°C° 0.6 mm 1 mps 731 mmHg 64%
18:00 +28°C° 1 mm 1 mps 731 mmHg 69%
19:00 +26°C° 1 mm 1 mps 731 mmHg 73%
20:00 +25°C° 1 mm 1 mps 731 mmHg 78%
21:00 +24°C° 1.7 mm 1 mps 731 mmHg 81%
22:00 +23°C° 1.7 mm 1 mps 732 mmHg 84%
23:00 +22°C° 1.7 mm 1 mps 732 mmHg 87%

5 July, Sunday

Time Temperature Precipitation Wind Pressure Humidity
00:00 +22°C° 2.4 mm 1 mps 732 mmHg 89%
01:00 +22°C° 2.4 mm 1 mps 732 mmHg 91%
02:00 +22°C° 2.4 mm 1 mps 732 mmHg 93%
03:00 +22°C° 0.9 mm 1 mps 732 mmHg 93%
04:00 +21°C° 0.9 mm 1 mps 732 mmHg 93%
05:00 +21°C° 0.9 mm 1 mps 732 mmHg 92%
06:00 +22°C° 0.2 mm 1 mps 732 mmHg 92%
07:00 +22°C° 0.2 mm 1 mps 732 mmHg 91%
08:00 +23°C° 0.2 mm 2 mps 733 mmHg 91%
09:00 +23°C° 0.7 mm 2 mps 733 mmHg 91%
10:00 +23°C° 0.7 mm 2 mps 733 mmHg 91%
11:00 +23°C° 0.7 mm 2 mps 733 mmHg 91%
12:00 +24°C° 0.8 mm 2 mps 733 mmHg 88%
13:00 +25°C° 0.8 mm 2 mps 732 mmHg 86%
14:00 +25°C° 0.8 mm 2 mps 732 mmHg 83%
15:00 +25°C° 1.1 mm 2 mps 732 mmHg 82%
16:00 +26°C° 1.1 mm 2 mps 732 mmHg 81%
17:00 +26°C° 1.1 mm 1 mps 732 mmHg 81%
18:00 +25°C° 0.6 mm 1 mps 732 mmHg 84%
19:00 +24°C° 0.6 mm 1 mps 732 mmHg 88%
20:00 +23°C° 0.6 mm 1 mps 732 mmHg 91%
21:00 +22°C° 0.1 mm 1 mps 732 mmHg 91%
22:00 +22°C° 0.1 mm 1 mps 732 mmHg 91%
23:00 +21°C° 0.1 mm 1 mps 732 mmHg 91%

6 July, Monday

Time Temperature Precipitation Wind Pressure Humidity
00:00 +21°C° 0 mm 1 mps 732 mmHg 91%
01:00 +21°C° 0 mm 1 mps 732 mmHg 90%
02:00 +21°C° 0 mm 1 mps 732 mmHg 90%
03:00 +21°C° 0 mm 1 mps 732 mmHg 90%
04:00 +21°C° 0 mm 1 mps 732 mmHg 91%
05:00 +21°C° 0 mm 1 mps 732 mmHg 91%
06:00 +22°C° 0 mm 1 mps 732 mmHg 89%
07:00 +23°C° 0 mm 1 mps 733 mmHg 86%
08:00 +25°C° 0 mm 2 mps 733 mmHg 84%
09:00 +26°C° 0.1 mm 2 mps 733 mmHg 79%
10:00 +27°C° 0.1 mm 2 mps 733 mmHg 75%
11:00 +28°C° 0.1 mm 2 mps 733 mmHg 71%
12:00 +29°C° 0 mm 2 mps 732 mmHg 67%
13:00 +29°C° 0 mm 2 mps 732 mmHg 63%
14:00 +30°C° 0 mm 1 mps 732 mmHg 59%
15:00 +30°C° 0 mm 2 mps 731 mmHg 59%
16:00 +30°C° 0 mm 2 mps 731 mmHg 60%
17:00 +30°C° 0 mm 2 mps 731 mmHg 60%
18:00 +28°C° 0 mm 1 mps 731 mmHg 66%
19:00 +27°C° 0 mm 1 mps 730 mmHg 72%
20:00 +25°C° 0 mm 1 mps 730 mmHg 78%
21:00 +25°C° 0 mm 1 mps 731 mmHg 76%
22:00 +24°C° 0 mm 1 mps 731 mmHg 75%
23:00 +24°C° 0 mm 1 mps 731 mmHg 73%

7 July, Tuesday

Time Temperature Precipitation Wind Pressure Humidity
00:00 +23°C° 0 mm 1 mps 731 mmHg 74%
01:00 +23°C° 0 mm 1 mps 731 mmHg 75%
02:00 +23°C° 0 mm 1 mps 730 mmHg 76%
03:00 +23°C° 0 mm 1 mps 730 mmHg 78%
04:00 +22°C° 0 mm 1 mps 730 mmHg 79%
05:00 +22°C° 0 mm 1 mps 730 mmHg 81%
06:00 +24°C° 0 mm 1 mps 730 mmHg 78%
07:00 +25°C° 0 mm 1 mps 730 mmHg 75%
08:00 +26°C° 0 mm 1 mps 730 mmHg 73%
09:00 +28°C° 0.2 mm 1 mps 730 mmHg 69%
10:00 +29°C° 0.2 mm 1 mps 730 mmHg 65%
11:00 +30°C° 0.2 mm 1 mps 730 mmHg 62%
12:00 +31°C° 0.2 mm 1 mps 730 mmHg 58%
13:00 +31°C° 0.2 mm 1 mps 729 mmHg 55%
14:00 +32°C° 0.2 mm 1 mps 729 mmHg 52%
15:00 +31°C° 0.1 mm 1 mps 729 mmHg 54%
16:00 +31°C° 0.1 mm 1 mps 729 mmHg 56%
17:00 +31°C° 0.1 mm 1 mps 729 mmHg 58%
18:00 +29°C° 0.2 mm 1 mps 728 mmHg 63%
19:00 +28°C° 0.2 mm 1 mps 728 mmHg 68%
20:00 +26°C° 0.2 mm 1 mps 728 mmHg 73%
21:00 +25°C° 0.3 mm 1 mps 729 mmHg 74%
22:00 +25°C° 0.3 mm 1 mps 729 mmHg 75%
23:00 +24°C° 0.3 mm 1 mps 729 mmHg 76%
Show more